| time (UTC) | temp C | wind direction | speed KPH | gust KPH | rain 1hr cm | rain 24hr cm | rain mn cm | humidity % | barometer mb |
| 20260504050412 | 7 | 300 | 17.7 | 0.0 | 0.00 | 0.00 | 0.00 | 76 | 1015.0 |
| 20260504044903 | 6 | 300 | 17.7 | 0.0 | 0.00 | 0.00 | 0.00 | 71 | 1014.0 |
| 20260504043402 | 6 | 300 | 17.7 | 0.0 | 0.00 | 0.00 | 0.00 | 71 | 1014.0 |
| 20260504041903 | 6 | 300 | 17.7 | 0.0 | 0.00 | 0.00 | 0.00 | 71 | 1014.0 |
| 20260504040402 | 6 | 300 | 17.7 | 0.0 | 0.00 | 0.00 | 0.00 | 71 | 1014.0 |
| 20260504034903 | 6 | 300 | 17.7 | 0.0 | 0.00 | 0.00 | 0.00 | 71 | 1014.0 |
| 20260504033402 | 6 | 300 | 17.7 | 0.0 | 0.00 | 0.00 | 0.00 | 71 | 1014.0 |
| 20260504031859 | 6 | 300 | 17.7 | 0.0 | 0.00 | 0.00 | 0.00 | 71 | 1014.0 |
| 20260504030527 | -17 | 0.0 | 0.0 | 0.00 | 0.00 | 0.00 | |||
| 20260504024900 | -17 | 0.0 | 0.0 | 0.00 | 0.00 | 0.00 | |||
| 20260504023402 | -17 | 0.0 | 0.0 | 0.00 | 0.00 | 0.00 | |||
| 20260504021859 | -17 | 0.0 | 0.0 | 0.00 | 0.00 | 0.00 | |||
| 20260504020403 | -17 | 0.0 | 0.0 | 0.00 | 0.00 | 0.00 | |||
| 20260504014903 | -17 | 0.0 | 0.0 | 0.00 | 0.00 | 0.00 | |||
| 20260504013407 | -17 | 0.0 | 0.0 | 0.00 | 0.00 | 0.00 | |||
| 20260504012026 | -17 | 0.0 | 0.0 | 0.00 | 0.00 | 0.00 | |||
| 20260504010403 | -17 | 0.0 | 0.0 | 0.00 | 0.00 | 0.00 | |||
| 20260504005026 | -17 | 0.0 | 0.0 | 0.00 | 0.00 | 0.00 | |||
| 20260504003402 | -17 | 0.0 | 0.0 | 0.00 | 0.00 | 0.00 | |||
| 20260504001903 | -17 | 0.0 | 0.0 | 0.00 | 0.00 | 0.00 | |||
| 20260504000403 | -17 | 0.0 | 0.0 | 0.00 | 0.00 | 0.00 | |||
| 20260503234939 | 6 | 330 | 8.0 | 0.0 | 0.00 | 0.00 | 0.00 | 76 | 1016.0 |
| 20260503233402 | 6 | 330 | 8.0 | 0.0 | 0.00 | 0.00 | 0.00 | 76 | 1016.0 |
| 20260503231903 | -17 | 0.0 | 0.0 | 0.00 | 0.00 | 0.00 | |||
| 20260503230415 | -17 | 0.0 | 0.0 | 0.00 | 0.00 | 0.00 | |||
| 20260503224859 | -17 | 0.0 | 0.0 | 0.00 | 0.00 | 0.00 | |||
| 20260503223411 | -17 | 0.0 | 0.0 | 0.00 | 0.00 | 0.00 | |||
| 20260503221919 | -17 | 0.0 | 0.0 | 0.00 | 0.00 | 0.00 | |||
| 20260503220444 | -17 | 0.0 | 0.0 | 0.00 | 0.00 | 0.00 | |||
| 20260503214906 | 6 | 330 | 8.0 | 0.0 | 0.00 | 0.00 | 0.00 | 76 | 1017.0 |
| 20260503213402 | 6 | 330 | 8.0 | 0.0 | 0.00 | 0.00 | 0.00 | 76 | 1017.0 |
| 20260503211903 | 6 | 330 | 8.0 | 0.0 | 0.00 | 0.00 | 0.00 | 76 | 1017.0 |
| 20260503210402 | 6 | 330 | 8.0 | 0.0 | 0.00 | 0.00 | 0.00 | 76 | 1017.0 |
| 20260503204909 | 6 | 330 | 8.0 | 0.0 | 0.00 | 0.00 | 0.00 | 76 | 1017.0 |
| 20260503203526 | -17 | 0.0 | 0.0 | 0.00 | 0.00 | 0.00 | |||
| 20260503201903 | 7 | 330 | 8.0 | 0.0 | 0.00 | 0.00 | 0.00 | 71 | 1018.0 |
| 20260503200412 | 7 | 330 | 8.0 | 0.0 | 0.00 | 0.00 | 0.00 | 71 | 1018.0 |
| 20260503194928 | 7 | 330 | 8.0 | 0.0 | 0.00 | 0.00 | 0.00 | 71 | 1018.0 |
| 20260503193528 | -17 | 0.0 | 0.0 | 0.00 | 0.00 | 0.00 | |||
| 20260503191900 | -17 | 0.0 | 0.0 | 0.00 | 0.00 | 0.00 | |||
| 20260503190403 | -17 | 0.0 | 0.0 | 0.00 | 0.00 | 0.00 | |||
| 20260503185026 | -17 | 0.0 | 0.0 | 0.00 | 0.00 | 0.00 | |||
| 20260503183402 | 7 | 350 | 8.0 | 0.0 | 0.00 | 0.00 | 0.00 | 66 | 1018.0 |
| 20260503181902 | 7 | 350 | 8.0 | 0.0 | 0.00 | 0.00 | 0.00 | 66 | 1018.0 |
| 20260503180402 | 7 | 350 | 8.0 | 0.0 | 0.00 | 0.00 | 0.00 | 66 | 1018.0 |
| 20260503174922 | 11 | 360 | 8.0 | 0.0 | 0.00 | 0.00 | 0.00 | 50 | 1018.0 |
| 20260503173427 | 11 | 360 | 8.0 | 0.0 | 0.00 | 0.00 | 0.00 | 50 | 1018.0 |
| 20260503171902 | 11 | 360 | 8.0 | 0.0 | 0.00 | 0.00 | 0.00 | 50 | 1018.0 |
| 20260503170403 | 11 | 360 | 8.0 | 0.0 | 0.00 | 0.00 | 0.00 | 50 | 1018.0 |
| 20260503150402 | -17 | 0.0 | 0.0 | 0.00 | 0.00 | 0.00 | |||
| 20260503130403 | -17 | 0.0 | 0.0 | 0.00 | 0.00 | 0.00 | |||
| 20260503110424 | 12 | 30 | 22.5 | 0.0 | 0.00 | 0.00 | 0.00 | 55 | 1021.0 |
| 20260503090423 | -17 | 0.0 | 0.0 | 0.00 | 0.00 | 0.00 | |||
| 20260503080413 | 12 | 30 | 22.5 | 0.0 | 0.00 | 0.00 | 0.00 | 67 | 1021.0 |
| 20260503071901 | 11 | 10 | 22.5 | 0.0 | 0.00 | 0.00 | 0.00 | 77 | 1021.0 |
| 20260503070403 | 11 | 10 | 22.5 | 0.0 | 0.00 | 0.00 | 0.00 | 77 | 1021.0 |
| 20260503054902 | 7 | 360 | 17.7 | 0.0 | 0.00 | 0.00 | 0.00 | 82 | 1020.0 |
| 20260503053402 | 7 | 360 | 17.7 | 0.0 | 0.00 | 0.00 | 0.00 | 82 | 1020.0 |
| 20260503051859 | 7 | 360 | 17.7 | 0.0 | 0.00 | 0.00 | 0.00 | 82 | 1020.0 |